Вернуться в каталог

DONGPO 12

АктивенНаукаSSO
NORAD 68200·PAYLOAD·🇨🇳 China
Это название спутника еще не подтверждено официальными источниками.

Запущен Mar 16, 2026 с Jiuquan Satellite Launch Center

Loading…

Ближайшие Пролёты (ближайшие 24 часа)

TLE

СвежийSource: Space-Track

Эпоха: Sep 14, 2026, 15:09 UTC

1 68200U 26052C   26257.63175105  .00002059  00000-0  12700-3 0  9990
2 68200  97.5293 331.0241 0001237  89.0763 271.0609 15.11037588 27545

Отслеживайте DONGPO 12 в реальном времени с AllMySat

Download on the App Store